Volver al catálogo

STARLINK-11328

ActivoComunicacionesVLEO
NORAD 61880·PAYLOAD·🇺🇸 United States

Lanzado Nov 9, 2024 desde Vandenberg Space Force Base

Loading…

Próximos Pases (próximas 24 horas)

TLE

ActualizadoSource: CelesTrak SupGP

Época: Sep 14, 2026, 21:09 UTC

1 61880C 24204G   26257.88173611 -.00035014  00000+0 -28833-3 0  2570
2 61880  53.1565 143.6718 0001068  97.8088  81.7012 15.69734432    19

Sigue STARLINK-11328 en tiempo real con AllMySat

Download on the App Store